Αρχική σελίδα
METAR-TAF:

METAR-TAF

Αεροδρόμια :

Colville Lake, Βορειοδυτικά Εδάφη, Καναδάς

γεωγραφικό πλάτος: 67-01-16N, γεωγραφικό μήκος: 126-07-43W, υψόμετρο: 274 μ

Παρών καιρός

Η αναφορά έγινε 29 λεπτά πριν, στις 15:00 UTC
Άνεμος 4 kt από Ν/ΝΔ
Θερμοκρασία -6°C
Υγρασία 86%
Πίεση 999 hPa
Ορατότητα: 14.5 χλμ
Νεφοσκεπής σε ύψος 7500 πόδια

METAR: CYVL 181500Z AUTO 21004KT 9SM OVC075 M06/M08 A2951 RMK SLP014

Χρόνος: 09:29 (15:29 UTC)


TAF: λείπει

Μετεωρολογικές αναφορές και προγνώσεις για περισσότερα από 4000 αεροδρόμια (δελτία METAR και TAF).

Οι διαθέσιμοι σταθμοί απεικονίζονται στο χάρτη με κίτρινες και κόκκινες κουκκίδες.

Μετακινήστε το ποντίκι πάνω από τις κουκκίδες για να δείτε το όνομα του σταθμού.

Στη συνέχεια, κάντε κλικ για να δείτε τις μετεωρολογικές αναφορές και τις προγνώσεις καιρού.

Για να αλλάξετε το χάρτη: κάντε κλικ στα πράσινα κουμπιά με τον μαύρο σταυρό για να ζουμάρετε, στο πράσινο κουμπί με την παύλα για να αφαιρέσετε το ζουμ ή στα πράσινα βέλη για να αντιπαραβάλλετε χάρτες.


METAR-TAF: